Regional Weather Roundup
Issued by NWS

Home | Current Version | Previous Version | Text Only | Print | Product List | Glossary Off
Versions: 1 2 3 4 5 6 7 8 9 10 11 12 13 14 15 16 17 18 19 20 21 22 23 24 25 26 27

000
ASUS45 KPSR 221210
RWRAZ

ARIZONA HOURLY REGIONAL WEATHER ROUNDUP
NATIONAL WEATHER SERVICE PHOENIX AZ
500 AM MST TUE AUG 22 2017

NOTE: FAIR INDICATES FEW OR NO CLOUDS BELOW 12,000 FEET WITH NO
SIGNIFICANT WEATHER AND/OR OBSTRUCTIONS TO VISIBILITY.

AZZ001>003-036-221300-
NORTHWEST ARIZONA

CITY           SKY/WX    TMP DP  RH WIND       PRES   REMARKS
BULLHEAD CITY  CLEAR     81  52  36 CALM      29.93R
KINGMAN        CLEAR     61  54  77 SE6       30.12F
6HR MIN TEMP:  59; 6HR MAX TEMP:  64;

$$

AZZ004>008-015-016-018-221300-
NORTH CENTRAL ARIZONA

CITY           SKY/WX    TMP DP  RH WIND       PRES   REMARKS
GRAND CANYON   LGT RAIN  58  52  80 E17       30.37F
6HR MIN TEMP:  54; 6HR MAX TEMP:  61; 6HR PCP:  0.11;

WILLIAMS       PTCLDY    55  50  82 SE5       30.35S
PRESCOTT       CLEAR     57  51  80 SW3       30.24R
6HR MIN TEMP:  57; 6HR MAX TEMP:  63;

FLAGSTAFF      MOCLDY    52  51  97 CALM      30.37S
6HR MIN TEMP:  50; 6HR MAX TEMP:  55; 6HR PCP:  0.04;

PAYSON           N/A     63  54  72 CALM      30.24R
PAGE           CLOUDY    74  53  48 NW6       30.19F
6HR MIN TEMP:  73; 6HR MAX TEMP:  79; 6HR PCP: TRACE;

$$

AZZ009>014-017-221300-
NORTHEAST ARIZONA

CITY           SKY/WX    TMP DP  RH WIND       PRES   REMARKS
WINSLOW        PTCLDY    65  50  58 NW6       30.22R
6HR MIN TEMP:  61; 6HR MAX TEMP:  71;

SAINT JOHNS    PTCLDY    60  50  69 E5        30.27R
6HR MIN TEMP:  60; 6HR MAX TEMP:  70;

WINDOW ROCK    CLEAR     52  48  86 CALM      30.35R
6HR MIN TEMP:  52; 6HR MAX TEMP:  62;

SHOW LOW       CLEAR     55  50  82 S3        30.33R
$$

AZZ540-542>544-546-548-221300-
GREATER PHOENIX AREA

CITY           SKY/WX    TMP DP  RH WIND       PRES   REMARKS
PHOENIX        PTCLDY    84  56  38 SW3       29.90R
6HR MIN TEMP:  84; 6HR MAX TEMP:  94;

BUCKEYE        CLEAR     81  52  36 N9        29.91S
DEER VALLEY    CLEAR     82  54  37 N7        29.93S
6HR MIN TEMP:  81; 6HR MAX TEMP:  90;

SCOTTSDALE     CLEAR     82  56  40 CALM      29.94S
6HR MIN TEMP:  81; 6HR MAX TEMP:  91;

$$

AZZ539-553-221300-
SOUTHWEST MARICOPA COUNTY AND PINAL COUNTY

CITY           SKY/WX    TMP DP  RH WIND       PRES   REMARKS
CASA GRANDE    PTCLDY    78  60  53 S3        29.95R
6HR MIN TEMP:  77; 6HR MAX TEMP:  86;

GILA BEND      FAIR      81  50  33 SE7       29.89R
6HR MIN TEMP:  81; 6HR MAX TEMP:  90;

$$

AZZ503-504-507>509-221300-
SOUTHEAST ARIZONA

CITY           SKY/WX    TMP DP  RH WIND       PRES   REMARKS
TUCSON         NOT AVBL
DAVIS-MONTHAN  PTCLDY    75  54  47 CALM      30.03S
6HR MIN TEMP:  75; 6HR MAX TEMP:  81;

NOGALES        CLEAR     68  60  75 NE6       30.13S
6HR MIN TEMP:  67; 6HR MAX TEMP:  77;

SIERRA VISTA   CLEAR     70  51  51 SW7       30.20R
6HR MIN TEMP:  67; 6HR MAX TEMP:  76;

DOUGLAS        CLEAR     64  59  83 N8        30.15R
6HR MIN TEMP:  63; 6HR MAX TEMP:  72;

SAFFORD        CLEAR     69  52  54 SE3       30.07R
6HR MIN TEMP:  67; 6HR MAX TEMP:  76;

$$

AZZ532-221300-
SOUTHWEST ARIZONA

CITY           SKY/WX    TMP DP  RH WIND       PRES   REMARKS
YUMA           CLEAR     85  58  39 CALM      29.86S
6HR MIN TEMP:  85; 6HR MAX TEMP:  89;

$$

CAZ041-043-047-048-061-525>527-560>570-221300-
SOUTHERN CALIFORNIA

CITY           SKY/WX    TMP DP  RH WIND       PRES   REMARKS
DOWNTOWN L.A.  CLEAR     67  62  84 CALM      29.97S
6HR MIN TEMP:  66; 6HR MAX TEMP:  69;

L.A. AIRPORT   PTCLDY    66  64  93 SW7       29.97S
6HR MIN TEMP:  66; 6HR MAX TEMP:  68;

SAN DIEGO      CLOUDY    70  63  78 N5        29.99R
6HR MIN TEMP:  69; 6HR MAX TEMP:  70;

BURBANK        CLEAR     63  56  78 CALM      29.98S
6HR MIN TEMP:  63; 6HR MAX TEMP:  68;

ONTARIO        CLEAR     65  59  81 CALM      29.98S
6HR MIN TEMP:  64; 6HR MAX TEMP:  69;

RIVERSIDE      CLEAR     64  60  87 SW3       29.98S
6HR MIN TEMP:  64; 6HR MAX TEMP:  69;

PALM SPRINGS   CLEAR     83  51  33 N13       29.90S
6HR MIN TEMP:  81; 6HR MAX TEMP:  90;

EL CENTRO NAS  CLEAR     78  47  33 CALM      29.86R
6HR MIN TEMP:  77; 6HR MAX TEMP:  90;

IMPERIAL       CLEAR     76  55  48 W3        29.84R
6HR MIN TEMP:  76; 6HR MAX TEMP:  90;

BLYTHE         CLEAR     85  54  34 CALM      29.88S
6HR MIN TEMP:  83; 6HR MAX TEMP:  93;

NEEDLES        CLEAR     83  53  35 N3        29.93S
6HR MIN TEMP:  82; 6HR MAX TEMP:  91;

$$

NVZ020-UTZ003-221300-
SOUTHERN NEVADA-UTAH

CITY           SKY/WX    TMP DP  RH WIND       PRES   REMARKS
LAS VEGAS      CLEAR     77  53  43 S5        30.03S
6HR MIN TEMP:  77; 6HR MAX TEMP:  85;

SALT LAKE CITY MOCLDY    73  46  38 E3        30.15R
6HR MIN TEMP:  71; 6HR MAX TEMP:  78;

$$

NMZ009-TXZ055-221300-
NEW MEXICO-WEST TEXAS

CITY           SKY/WX    TMP DP  RH WIND       PRES   REMARKS
ALBUQUERQUE    PTCLDY    68  52  56 NE3       30.27R
6HR MIN TEMP:  66; 6HR MAX TEMP:  73; 6HR PCP: TRACE;

EL PASO        PTCLDY    71  68  90 NE5       30.13S
6HR MIN TEMP:  71; 6HR MAX TEMP:  79;

$$


........................KEY........................
SKY/WX - SKY CONDITION/WEATHER
TMP    - TEMPERATURE IN FAHRENHEIT
DP     - DEW POINT IN FAHRENHEIT
RH     - RELATIVE HUMIDITY IN PERCENT
WIND   - DIRECTION AND SPEED IN MILES PER HOUR (MPH)
VRB    - VARIABLE WIND DIRECTION
PRES   - MEAN SEA LEVEL PRESSURE IN INCHES OF MERCURY
         F - FALLING PRESSURE   R - RISING PRESSURE
         S - STEADY PRESSURE
VSB    - VISIBILITY IN MILES
HX     - HEAT INDEX IN FAHRENHEIT
WCI    - WIND CHILL INDEX IN FAHRENHEIT
TC     - TEMPERATURE IN CELSIUS WHICH IS ALSO KNOWN AS
         TEMPERATURE IN CENTIGRADE
AFB    - AIR FORCE BASE
         LUKE AFB IS LUKE AIR FORCE BASE
         DAVIS-MONTHAN IS DAVIS-MONTHAN AIR FORCE BASE
NAS    - NAVAL AIR STATION
         EL CENTRO NAS IS EL CENTRO NAVAL AIR STATION
N/A    - NOT AVAILABLE





USA.gov is the U.S. government's official web portal to all federal, state and local government web resources and services.